Time,TemperatureF,DewpointF,PressureIn,WindDirection,WindDirectionDegrees,WindSpeedMPH,WindSpeedGustMPH,Humidity,HourlyPrecipIn,Conditions,Clouds,dailyrainin,SoftwareType,DateUTC
2013-10-30 00:00:00,37.2,29.3,30.33,SSW,200,0.0,0.0,73,0.00,,,0.00,WeatherDisplay:10.37,2013-10-30 04:00:00,
2013-10-30 00:01:00,37.2,29.3,30.33,SSW,200,0.0,0.0,73,0.00,,,0.00,WeatherDisplay:10.37,2013-10-30 04:01:00,
2013-10-30 00:02:00,37.2,29.0,30.33,SSW,200,0.0,0.0,72,0.00,,,0.00,WeatherDisplay:10.37,2013-10-30 04:02:00,
2013-10-30 00:07:00,37.3,29.1,30.33,SSW,200,0.0,0.0,72,0.00,,,0.00,WeatherDisplay:10.37,2013-10-30 04:07:00,
2013-10-30 00:12:00,37.4,29.9,30.33,SSW,200,0.0,0.0,74,0.00,,,0.00,WeatherDisplay:10.37,2013-10-30 04:12:00,
2013-10-30 00:17:00,37.4,29.5,30.32,SSW,200,0.0,0.0,73,0.00,,,0.00,WeatherDisplay:10.37,2013-10-30 04:17:00,
2013-10-30 00:22:00,37.4,29.5,30.32,SSW,200,0.0,0.0,73,0.00,,,0.00,WeatherDisplay:10.37,2013-10-30 04:22:00,
2013-10-30 00:27:00,37.4,30.2,30.32,SSW,200,0.0,0.0,75,0.00,,,0.00,WeatherDisplay:10.37,2013-10-30 04:27:00,
2013-10-30 00:32:00,37.4,29.9,30.32,SSW,200,0.0,0.0,74,0.00,,,0.00,WeatherDisplay:10.37,2013-10-30 04:32:00,
2013-10-30 00:37:00,37.4,30.2,30.32,SSW,200,0.0,0.0,75,0.00,,,0.00,WeatherDisplay:10.37,2013-10-30 04:37:00,
2013-10-30 00:42:00,37.4,30.5,30.32,SSW,200,0.0,0.0,76,0.00,,,0.00,WeatherDisplay:10.37,2013-10-30 04:42:00,
2013-10-30 00:47:00,37.4,30.2,30.32,SSW,200,0.0,0.0,75,0.00,,,0.00,WeatherDisplay:10.37,2013-10-30 04:47:00,
2013-10-30 00:52:00,37.4,30.5,30.32,SSW,200,0.0,0.0,76,0.00,,,0.00,WeatherDisplay:10.37,2013-10-30 04:52:00,
2013-10-30 00:57:00,37.4,30.5,30.31,SSW,200,0.0,0.0,76,0.00,,,0.00,WeatherDisplay:10.37,2013-10-30 04:57:00,
2013-10-30 01:02:00,37.4,30.8,30.32,SSW,200,0.0,0.0,77,0.00,,,0.00,WeatherDisplay:10.37,2013-10-30 05:02:00,
2013-10-30 01:07:00,37.4,31.2,30.32,SSW,200,0.0,0.0,78,0.00,,,0.00,WeatherDisplay:10.37,2013-10-30 05:07:00,
2013-10-30 01:12:00,37.5,31.3,30.32,SSW,200,0.0,0.0,78,0.00,,,0.00,WeatherDisplay:10.37,2013-10-30 05:12:00,
2013-10-30 01:17:00,37.4,31.5,30.32,SSW,200,0.0,0.0,79,0.00,,,0.00,WeatherDisplay:10.37,2013-10-30 05:17:00,
2013-10-30 01:22:00,37.4,31.8,30.31,SSW,200,0.0,0.0,80,0.00,,,0.00,WeatherDisplay:10.37,2013-10-30 05:22:00,
2013-10-30 01:27:00,37.3,32.6,30.31,SE,138,0.0,0.0,83,0.00,,,0.00,WeatherDisplay:10.37,2013-10-30 05:27:00,
2013-10-30 01:32:00,37.1,33.0,30.31,SE,124,0.0,0.0,85,0.00,,,0.00,WeatherDisplay:10.37,2013-10-30 05:32:00,
2013-10-30 01:37:00,37.0,33.2,30.31,West,273,0.0,0.0,86,0.00,,,0.00,WeatherDisplay:10.37,2013-10-30 05:37:00,
2013-10-30 01:42:00,36.8,33.6,30.31,SE,129,0.0,0.0,88,0.01,RA,,0.01,WeatherDisplay:10.37,2013-10-30 05:42:00,
2013-10-30 01:47:00,36.6,33.7,30.31,SE,129,0.0,0.0,89,0.01,RA,,0.01,WeatherDisplay:10.37,2013-10-30 05:47:00,
2013-10-30 01:52:00,36.5,33.6,30.30,SE,128,0.0,0.0,89,0.01,,,0.01,WeatherDisplay:10.37,2013-10-30 05:52:00,
2013-10-30 01:57:00,36.4,33.7,30.30,SE,129,0.0,0.0,90,0.02,RA,,0.02,WeatherDisplay:10.37,2013-10-30 05:57:00,
2013-10-30 02:02:00,36.3,33.6,30.30,SE,129,0.0,0.0,90,0.02,RA,,0.02,WeatherDisplay:10.37,2013-10-30 06:02:00,
2013-10-30 02:07:00,36.3,33.6,30.30,SE,129,0.0,0.0,90,0.02,,,0.02,WeatherDisplay:10.37,2013-10-30 06:07:00,
2013-10-30 02:12:00,36.3,33.6,30.30,SE,129,0.0,0.0,90,0.02,,,0.02,WeatherDisplay:10.37,2013-10-30 06:12:00,
2013-10-30 02:17:00,36.3,33.6,30.30,SE,129,0.0,0.0,90,0.02,,,0.02,WeatherDisplay:10.37,2013-10-30 06:17:00,
2013-10-30 02:22:00,36.4,33.7,30.30,SE,129,0.0,0.0,90,0.03,RA,,0.03,WeatherDisplay:10.37,2013-10-30 06:22:00,
2013-10-30 02:27:00,36.4,33.7,30.30,SE,129,0.0,0.0,90,0.03,RA,,0.03,WeatherDisplay:10.37,2013-10-30 06:27:00,
2013-10-30 02:32:00,36.3,33.6,30.30,SE,129,0.0,0.0,90,0.03,,,0.03,WeatherDisplay:10.37,2013-10-30 06:32:00,
2013-10-30 02:37:00,36.3,33.6,30.30,SE,129,0.0,0.0,90,0.03,,,0.03,WeatherDisplay:10.37,2013-10-30 06:37:00,
2013-10-30 02:42:00,36.2,33.8,30.30,SE,128,0.0,0.0,91,0.02,,,0.03,WeatherDisplay:10.37,2013-10-30 06:42:00,
2013-10-30 02:47:00,36.1,33.5,30.29,SE,128,0.0,0.0,90,0.02,,,0.03,WeatherDisplay:10.37,2013-10-30 06:47:00,
2013-10-30 02:52:00,36.1,33.5,30.29,SE,129,0.0,0.0,90,0.02,,,0.03,WeatherDisplay:10.37,2013-10-30 06:52:00,
2013-10-30 02:57:00,36.1,33.5,30.29,SE,128,0.0,0.0,90,0.01,,,0.03,WeatherDisplay:10.37,2013-10-30 06:57:00,
2013-10-30 03:02:00,36.1,33.5,30.29,SE,128,0.0,0.0,90,0.01,,,0.03,WeatherDisplay:10.37,2013-10-30 07:02:00,
2013-10-30 03:07:00,36.1,33.5,30.29,SE,128,0.0,0.0,90,0.01,,,0.03,WeatherDisplay:10.37,2013-10-30 07:07:00,
2013-10-30 03:12:00,36.1,33.5,30.29,SE,129,0.0,0.0,90,0.01,,,0.03,WeatherDisplay:10.37,2013-10-30 07:12:00,
2013-10-30 03:17:00,36.3,33.6,30.29,SE,129,0.0,0.0,90,0.01,,,0.03,WeatherDisplay:10.37,2013-10-30 07:17:00,
2013-10-30 03:22:00,36.3,33.6,30.28,SE,128,0.0,0.0,90,0.00,,,0.03,WeatherDisplay:10.37,2013-10-30 07:22:00,
2013-10-30 03:27:00,36.2,33.5,30.28,SE,129,0.0,0.0,90,0.01,RA,,0.04,WeatherDisplay:10.37,2013-10-30 07:27:00,
2013-10-30 03:32:00,36.3,33.6,30.28,SE,128,0.0,0.0,90,0.01,RA,,0.04,WeatherDisplay:10.37,2013-10-30 07:32:00,
2013-10-30 03:37:00,36.3,33.6,30.28,SE,129,0.0,0.0,90,0.01,,,0.04,WeatherDisplay:10.37,2013-10-30 07:37:00,
2013-10-30 03:42:00,36.4,33.7,30.28,SE,129,0.0,0.0,90,0.01,,,0.04,WeatherDisplay:10.37,2013-10-30 07:42:00,
2013-10-30 03:47:00,36.4,33.7,30.28,SE,129,0.0,0.0,90,0.01,,,0.04,WeatherDisplay:10.37,2013-10-30 07:47:00,
2013-10-30 03:52:00,36.5,33.6,30.28,SE,129,0.0,0.0,89,0.01,,,0.04,WeatherDisplay:10.37,2013-10-30 07:52:00,
2013-10-30 03:57:00,36.5,33.8,30.28,SE,128,0.0,0.0,90,0.01,,,0.04,WeatherDisplay:10.37,2013-10-30 07:57:00,
2013-10-30 04:02:00,36.5,33.6,30.29,SE,129,0.0,0.0,89,0.01,,,0.04,WeatherDisplay:10.37,2013-10-30 08:02:00,
2013-10-30 04:07:00,36.6,33.7,30.29,SE,128,0.0,0.0,89,0.01,,,0.04,WeatherDisplay:10.37,2013-10-30 08:07:00,
2013-10-30 04:12:00,36.6,33.7,30.29,SE,129,0.0,0.0,89,0.01,,,0.04,WeatherDisplay:10.37,2013-10-30 08:12:00,
2013-10-30 04:17:00,36.6,33.7,30.28,SE,129,0.0,0.0,89,0.01,,,0.04,WeatherDisplay:10.37,2013-10-30 08:17:00,
2013-10-30 04:22:00,36.6,33.7,30.28,SE,128,0.0,0.0,89,0.01,,,0.04,WeatherDisplay:10.37,2013-10-30 08:22:00,
2013-10-30 04:27:00,36.7,33.8,30.28,SE,128,0.0,0.0,89,0.00,,,0.04,WeatherDisplay:10.37,2013-10-30 08:27:00,
2013-10-30 04:32:00,36.7,33.8,30.28,SE,129,0.0,0.0,89,0.00,,,0.04,WeatherDisplay:10.37,2013-10-30 08:32:00,
2013-10-30 04:37:00,36.8,33.9,30.28,SE,129,0.0,0.0,89,0.00,,,0.04,WeatherDisplay:10.37,2013-10-30 08:37:00,
2013-10-30 04:42:00,36.8,33.9,30.28,SE,128,0.0,0.0,89,0.00,,,0.04,WeatherDisplay:10.37,2013-10-30 08:42:00,
2013-10-30 04:47:00,36.9,34.0,30.28,SE,128,0.0,0.0,89,0.00,,,0.04,WeatherDisplay:10.37,2013-10-30 08:47:00,
2013-10-30 04:52:00,36.9,34.0,30.28,SE,129,0.0,0.0,89,0.00,,,0.04,WeatherDisplay:10.37,2013-10-30 08:52:00,
2013-10-30 04:57:00,37.0,34.1,30.28,SE,128,0.0,0.0,89,0.00,,,0.04,WeatherDisplay:10.37,2013-10-30 08:57:00,
2013-10-30 05:02:00,37.0,34.1,30.28,SE,129,0.0,0.0,89,0.00,,,0.04,WeatherDisplay:10.37,2013-10-30 09:02:00,
2013-10-30 05:07:00,37.0,34.1,30.27,SE,128,0.0,0.0,89,0.00,,,0.05,WeatherDisplay:10.37,2013-10-30 09:07:00,
2013-10-30 05:12:00,37.0,34.1,30.27,SE,129,0.0,0.0,89,0.01,RA,,0.05,WeatherDisplay:10.37,2013-10-30 09:12:00,
2013-10-30 05:17:00,36.9,34.0,30.27,SE,129,0.0,0.0,89,0.01,RA,,0.05,WeatherDisplay:10.37,2013-10-30 09:17:00,
2013-10-30 05:22:00,36.9,34.0,30.27,SE,129,0.0,0.0,89,0.01,,,0.05,WeatherDisplay:10.37,2013-10-30 09:22:00,
2013-10-30 05:27:00,37.0,34.1,30.27,SE,128,0.0,0.0,89,0.01,,,0.05,WeatherDisplay:10.37,2013-10-30 09:27:00,
2013-10-30 05:32:00,37.0,34.1,30.27,SE,128,0.0,0.0,89,0.01,,,0.05,WeatherDisplay:10.37,2013-10-30 09:32:00,
2013-10-30 05:37:00,37.0,34.1,30.27,SE,128,0.0,0.0,89,0.01,,,0.05,WeatherDisplay:10.37,2013-10-30 09:37:00,
2013-10-30 05:42:00,37.0,33.8,30.27,SE,129,0.0,0.0,88,0.01,,,0.05,WeatherDisplay:10.37,2013-10-30 09:42:00,
2013-10-30 05:47:00,37.1,33.9,30.28,SE,129,0.0,0.0,88,0.01,,,0.05,WeatherDisplay:10.37,2013-10-30 09:47:00,
2013-10-30 05:52:00,37.1,33.9,30.27,SE,128,0.0,0.0,88,0.01,,,0.05,WeatherDisplay:10.37,2013-10-30 09:52:00,
2013-10-30 05:57:00,37.1,33.9,30.28,SE,128,0.0,0.0,88,0.01,,,0.05,WeatherDisplay:10.37,2013-10-30 09:57:00,
2013-10-30 06:02:00,37.2,34.0,30.28,SE,128,0.0,0.0,88,0.01,,,0.05,WeatherDisplay:10.37,2013-10-30 10:02:00,
2013-10-30 06:07:00,37.2,34.0,30.28,SE,128,0.0,0.0,88,0.01,,,0.05,WeatherDisplay:10.37,2013-10-30 10:07:00,
2013-10-30 06:12:00,37.2,34.0,30.28,SE,128,0.0,0.0,88,0.00,,,0.05,WeatherDisplay:10.37,2013-10-30 10:12:00,
2013-10-30 06:17:00,37.2,34.0,30.28,SE,129,0.0,0.0,88,0.00,,,0.05,WeatherDisplay:10.37,2013-10-30 10:17:00,
2013-10-30 06:22:00,37.3,34.1,30.27,SE,128,0.0,0.0,88,0.00,,,0.05,WeatherDisplay:10.37,2013-10-30 10:22:00,
2013-10-30 06:27:00,37.3,34.1,30.27,SE,129,0.0,0.0,88,0.00,,,0.05,WeatherDisplay:10.37,2013-10-30 10:27:00,
2013-10-30 06:32:00,37.3,34.1,30.28,SE,128,0.0,0.0,88,0.00,,,0.05,WeatherDisplay:10.37,2013-10-30 10:32:00,
2013-10-30 06:37:00,37.3,34.1,30.28,SE,128,0.0,0.0,88,0.00,,,0.05,WeatherDisplay:10.37,2013-10-30 10:37:00,
2013-10-30 06:42:00,37.4,34.2,30.27,SE,129,0.0,0.0,88,0.00,,,0.05,WeatherDisplay:10.37,2013-10-30 10:42:00,
2013-10-30 06:47:00,37.4,34.2,30.27,SE,128,0.0,0.0,88,0.00,,,0.05,WeatherDisplay:10.37,2013-10-30 10:47:00,
2013-10-30 06:52:00,37.4,34.2,30.27,SE,129,0.0,0.0,88,0.00,,,0.05,WeatherDisplay:10.37,2013-10-30 10:52:00,
2013-10-30 06:57:00,37.4,34.2,30.27,SE,129,0.0,0.0,88,0.00,,,0.05,WeatherDisplay:10.37,2013-10-30 10:57:00,
2013-10-30 07:03:00,37.4,34.2,30.27,SE,128,0.0,0.0,88,0.00,,,0.05,WeatherDisplay:10.37,2013-10-30 11:03:00,
2013-10-30 07:08:00,37.4,34.2,30.27,SE,129,0.0,0.0,88,0.00,,,0.05,WeatherDisplay:10.37,2013-10-30 11:08:00,
2013-10-30 07:13:00,37.4,34.2,30.27,SE,129,0.0,0.0,88,0.00,CLR,,0.05,WeatherDisplay:10.37,2013-10-30 11:13:00,
2013-10-30 07:18:00,37.4,34.2,30.27,SE,128,0.0,0.0,88,0.00,CLR,,0.05,WeatherDisplay:10.37,2013-10-30 11:18:00,
2013-10-30 07:23:00,37.4,34.2,30.27,SE,128,0.0,0.0,88,0.00,CLR,,0.05,WeatherDisplay:10.37,2013-10-30 11:23:00,
2013-10-30 07:28:00,37.4,34.2,30.27,SE,128,0.0,0.0,88,0.00,CLR,,0.05,WeatherDisplay:10.37,2013-10-30 11:28:00,
2013-10-30 07:33:00,37.3,34.1,30.27,SE,128,0.0,0.0,88,0.00,CLR,,0.05,WeatherDisplay:10.37,2013-10-30 11:33:00,
2013-10-30 07:38:00,37.3,34.1,30.27,SE,128,0.0,0.0,88,0.00,CLR,,0.05,WeatherDisplay:10.37,2013-10-30 11:38:00,
2013-10-30 07:43:00,37.2,34.0,30.27,SE,129,0.0,0.0,88,0.00,CLR,,0.05,WeatherDisplay:10.37,2013-10-30 11:43:00,
2013-10-30 07:48:00,37.3,34.1,30.27,SE,129,0.0,0.0,88,0.00,CLR,,0.05,WeatherDisplay:10.37,2013-10-30 11:48:00,
2013-10-30 07:53:00,37.3,34.1,30.28,SE,129,0.0,0.0,88,0.00,CLR,,0.05,WeatherDisplay:10.37,2013-10-30 11:53:00,
2013-10-30 07:58:00,37.3,34.1,30.28,SE,128,0.0,0.0,88,0.00,CLR,,0.05,WeatherDisplay:10.37,2013-10-30 11:58:00,
2013-10-30 08:03:00,37.3,34.1,30.28,SE,129,0.0,0.0,88,0.00,CLR,,0.05,WeatherDisplay:10.37,2013-10-30 12:03:00,
2013-10-30 08:08:00,37.4,34.2,30.28,SE,128,0.0,0.0,88,0.00,CLR,,0.05,WeatherDisplay:10.37,2013-10-30 12:08:00,
2013-10-30 08:13:00,37.4,34.2,30.29,SE,129,0.0,0.0,88,0.00,CLR,,0.05,WeatherDisplay:10.37,2013-10-30 12:13:00,
2013-10-30 08:18:00,37.5,34.3,30.29,SE,129,0.0,0.0,88,0.00,CLR,,0.05,WeatherDisplay:10.37,2013-10-30 12:18:00,
2013-10-30 08:23:00,37.6,34.4,30.29,SE,129,0.0,0.0,88,0.00,CLR,,0.05,WeatherDisplay:10.37,2013-10-30 12:23:00,
2013-10-30 08:28:00,37.7,34.5,30.29,SE,128,0.0,0.0,88,0.00,CLR,,0.05,WeatherDisplay:10.37,2013-10-30 12:28:00,
2013-10-30 08:33:00,37.7,34.5,30.29,SE,129,0.0,0.0,88,0.00,CLR,,0.05,WeatherDisplay:10.37,2013-10-30 12:33:00,
2013-10-30 08:38:00,37.8,34.6,30.29,SE,128,0.0,0.0,88,0.00,CLR,,0.05,WeatherDisplay:10.37,2013-10-30 12:38:00,
2013-10-30 08:43:00,37.9,34.7,30.29,SE,128,0.0,0.0,88,0.00,CLR,,0.05,WeatherDisplay:10.37,2013-10-30 12:43:00,
2013-10-30 08:48:00,37.9,34.7,30.29,SE,129,0.0,0.0,88,0.00,CLR,,0.05,WeatherDisplay:10.37,2013-10-30 12:48:00,
2013-10-30 08:53:00,38.0,34.8,30.29,SE,128,0.0,0.0,88,0.00,CLR,,0.05,WeatherDisplay:10.37,2013-10-30 12:53:00,
2013-10-30 08:58:00,38.1,34.9,30.29,SE,129,0.0,0.0,88,0.00,CLR,,0.05,WeatherDisplay:10.37,2013-10-30 12:58:00,
2013-10-30 09:03:00,38.2,35.0,30.29,SE,128,0.0,0.0,88,0.00,CLR,,0.05,WeatherDisplay:10.37,2013-10-30 13:03:00,
2013-10-30 09:08:00,38.3,35.1,30.29,SE,129,0.0,0.0,88,0.00,CLR,,0.05,WeatherDisplay:10.37,2013-10-30 13:08:00,
2013-10-30 09:13:00,38.5,35.3,30.29,SE,129,0.0,0.0,88,0.00,CLR,,0.05,WeatherDisplay:10.37,2013-10-30 13:13:00,
2013-10-30 09:18:00,38.7,35.5,30.29,SE,129,0.0,0.0,88,0.00,CLR,,0.05,WeatherDisplay:10.37,2013-10-30 13:18:00,
2013-10-30 09:23:00,38.9,35.6,30.29,SE,129,0.0,0.0,88,0.00,CLR,,0.05,WeatherDisplay:10.37,2013-10-30 13:23:00,
2013-10-30 09:28:00,39.1,35.8,30.29,SE,128,0.0,0.0,88,0.00,CLR,,0.05,WeatherDisplay:10.37,2013-10-30 13:28:00,
2013-10-30 09:33:00,39.3,36.0,30.29,SE,129,0.0,0.0,88,0.00,CLR,,0.05,WeatherDisplay:10.37,2013-10-30 13:33:00,
2013-10-30 09:38:00,39.6,36.3,30.29,SE,128,0.0,0.0,88,0.00,CLR,,0.05,WeatherDisplay:10.37,2013-10-30 13:38:00,
2013-10-30 09:43:00,39.8,36.5,30.29,SE,129,0.0,0.0,88,0.00,CLR,,0.05,WeatherDisplay:10.37,2013-10-30 13:43:00,
2013-10-30 09:48:00,40.1,36.8,30.29,SE,129,0.0,0.0,88,0.00,CLR,,0.05,WeatherDisplay:10.37,2013-10-30 13:48:00,
2013-10-30 09:53:00,40.4,37.1,30.29,SE,129,0.0,0.0,88,0.00,CLR,,0.05,WeatherDisplay:10.37,2013-10-30 13:53:00,
2013-10-30 09:58:00,40.6,37.3,30.29,SE,128,0.0,0.0,88,0.00,CLR,,0.05,WeatherDisplay:10.37,2013-10-30 13:58:00,
2013-10-30 10:03:00,40.8,37.5,30.30,SE,129,0.0,0.0,88,0.00,CLR,,0.05,WeatherDisplay:10.37,2013-10-30 14:03:00,
2013-10-30 10:08:00,41.1,37.8,30.29,SE,128,0.0,0.0,88,0.00,CLR,,0.05,WeatherDisplay:10.37,2013-10-30 14:08:00,
2013-10-30 10:13:00,41.4,38.1,30.29,SE,128,0.0,0.0,88,0.00,CLR,,0.05,WeatherDisplay:10.37,2013-10-30 14:13:00,
2013-10-30 10:19:00,41.6,38.3,30.29,SE,129,0.0,0.0,88,0.00,CLR,,0.05,WeatherDisplay:10.37,2013-10-30 14:19:00,
2013-10-30 10:24:00,41.8,38.5,30.29,SE,128,0.0,0.0,88,0.00,CLR,,0.05,WeatherDisplay:10.37,2013-10-30 14:24:00,
2013-10-30 10:29:00,41.9,38.6,30.29,SE,129,0.0,0.0,88,0.00,CLR,,0.05,WeatherDisplay:10.37,2013-10-30 14:29:00,
2013-10-30 10:34:00,42.2,38.9,30.29,SE,129,0.0,0.0,88,0.00,CLR,,0.05,WeatherDisplay:10.37,2013-10-30 14:34:00,
2013-10-30 10:39:00,42.5,39.2,30.29,SE,129,0.0,0.0,88,0.00,CLR,,0.05,WeatherDisplay:10.37,2013-10-30 14:39:00,
2013-10-30 10:44:00,42.7,39.4,30.29,SE,128,0.0,0.0,88,0.00,CLR,,0.05,WeatherDisplay:10.37,2013-10-30 14:44:00,
2013-10-30 10:49:00,42.9,39.6,30.29,SSE,152,0.0,0.0,88,0.00,CLR,,0.05,WeatherDisplay:10.37,2013-10-30 14:49:00,
2013-10-30 10:54:00,43.5,40.2,30.29,SSE,153,0.0,0.0,88,0.00,CLR,,0.05,WeatherDisplay:10.37,2013-10-30 14:54:00,
2013-10-30 10:59:00,43.7,41.0,30.29,SSE,153,0.0,0.0,90,0.00,CLR,,0.05,WeatherDisplay:10.37,2013-10-30 14:59:00,
2013-10-30 11:04:00,44.1,41.6,30.29,SSE,153,0.0,0.0,91,0.00,CLR,,0.05,WeatherDisplay:10.37,2013-10-30 15:04:00,
2013-10-30 11:09:00,44.5,42.0,30.28,ESE,108,1.1,1.1,91,0.00,CLR,,0.05,WeatherDisplay:10.37,2013-10-30 15:09:00,
2013-10-30 11:14:00,44.7,42.2,30.28,ESE,120,1.1,1.1,91,0.00,CLR,,0.05,WeatherDisplay:10.37,2013-10-30 15:14:00,
2013-10-30 11:19:00,44.9,41.9,30.28,SE,128,0.0,0.0,89,0.00,CLR,,0.05,WeatherDisplay:10.37,2013-10-30 15:19:00,
2013-10-30 11:24:00,45.3,42.0,30.28,SSW,203,1.1,0.0,88,0.00,CLR,,0.05,WeatherDisplay:10.37,2013-10-30 15:24:00,
2013-10-30 11:29:00,45.6,42.0,30.28,SE,124,0.0,0.0,87,0.00,CLR,,0.05,WeatherDisplay:10.37,2013-10-30 15:29:00,
2013-10-30 11:34:00,46.1,42.7,30.28,SE,124,1.1,1.1,88,0.00,CLR,,0.05,WeatherDisplay:10.37,2013-10-30 15:34:00,
2013-10-30 11:39:00,46.2,41.6,30.28,East,94,1.1,1.1,84,0.00,CLR,,0.05,WeatherDisplay:10.37,2013-10-30 15:39:00,
2013-10-30 11:44:00,46.3,42.0,30.28,SE,140,1.0,1.0,85,0.00,CLR,,0.05,WeatherDisplay:10.37,2013-10-30 15:44:00,
2013-10-30 11:49:00,46.7,43.0,30.27,West,260,2.3,2.3,87,0.00,CLR,,0.05,WeatherDisplay:10.37,2013-10-30 15:49:00,
2013-10-30 11:54:00,46.9,42.6,30.28,SSE,162,1.1,1.1,85,0.00,CLR,,0.05,WeatherDisplay:10.37,2013-10-30 15:54:00,
2013-10-30 11:59:00,47.3,43.0,30.27,ESE,111,1.1,1.1,85,0.00,CLR,,0.05,WeatherDisplay:10.37,2013-10-30 15:59:00,
2013-10-30 12:04:00,47.4,42.2,30.27,ESE,105,2.3,2.3,82,0.00,CLR,,0.05,WeatherDisplay:10.37,2013-10-30 16:04:00,
2013-10-30 12:09:00,47.7,42.5,30.27,East,83,2.3,2.3,82,0.00,CLR,,0.05,WeatherDisplay:10.37,2013-10-30 16:09:00,
2013-10-30 12:14:00,48.3,42.4,30.27,SW,234,2.3,2.3,80,0.00,CLR,,0.05,WeatherDisplay:10.37,2013-10-30 16:14:00,
2013-10-30 12:19:00,48.8,42.2,30.27,WSW,253,2.3,2.3,78,0.00,CLR,,0.05,WeatherDisplay:10.37,2013-10-30 16:19:00,
2013-10-30 12:24:00,49.1,43.2,30.26,East,91,2.0,2.0,80,0.00,CLR,,0.05,WeatherDisplay:10.37,2013-10-30 16:24:00,
2013-10-30 12:29:00,49.1,42.2,30.26,South,176,2.3,2.3,77,0.00,CLR,,0.05,WeatherDisplay:10.37,2013-10-30 16:29:00,
2013-10-30 12:34:00,49.3,42.7,30.26,SSW,198,2.3,2.3,78,0.00,CLR,,0.05,WeatherDisplay:10.37,2013-10-30 16:34:00,
2013-10-30 12:39:00,49.6,42.7,30.26,South,187,1.1,1.1,77,0.00,CLR,,0.05,WeatherDisplay:10.37,2013-10-30 16:39:00,
2013-10-30 12:44:00,49.9,43.3,30.25,SSW,211,0.0,0.0,78,0.00,CLR,,0.05,WeatherDisplay:10.37,2013-10-30 16:44:00,
2013-10-30 12:49:00,50.3,43.4,30.25,SE,131,0.0,0.0,77,0.00,CLR,,0.05,WeatherDisplay:10.37,2013-10-30 16:49:00,
2013-10-30 12:54:00,50.5,42.2,30.25,WSW,239,1.1,1.1,73,0.00,CLR,,0.05,WeatherDisplay:10.37,2013-10-30 16:54:00,
2013-10-30 12:59:00,50.5,42.2,30.25,SSE,150,1.1,1.1,73,0.00,CLR,,0.05,WeatherDisplay:10.37,2013-10-30 16:59:00,
2013-10-30 13:04:00,50.6,42.6,30.24,SE,143,0.0,0.0,74,0.00,CLR,,0.05,WeatherDisplay:10.37,2013-10-30 17:04:00,
2013-10-30 13:09:00,50.8,42.5,30.24,SE,142,0.0,0.0,73,0.00,CLR,,0.05,WeatherDisplay:10.37,2013-10-30 17:09:00,
2013-10-30 13:14:00,51.0,42.3,30.24,SSW,205,0.0,0.0,72,0.00,CLR,,0.05,WeatherDisplay:10.37,2013-10-30 17:14:00,
2013-10-30 13:19:00,51.2,42.8,30.23,ESE,105,0.0,0.0,73,0.00,CLR,,0.05,WeatherDisplay:10.37,2013-10-30 17:19:00,
2013-10-30 13:24:00,51.1,42.4,30.23,East,95,0.0,0.0,72,0.00,CLR,,0.05,WeatherDisplay:10.37,2013-10-30 17:24:00,
2013-10-30 13:29:00,51.2,42.5,30.23,SW,226,2.3,2.3,72,0.00,CLR,,0.05,WeatherDisplay:10.37,2013-10-30 17:29:00,
2013-10-30 13:34:00,51.3,41.8,30.23,ESE,120,1.1,0.0,70,0.00,CLR,,0.05,WeatherDisplay:10.37,2013-10-30 17:34:00,
2013-10-30 13:39:00,51.5,42.8,30.23,ESE,103,0.0,0.0,72,0.00,CLR,,0.05,WeatherDisplay:10.37,2013-10-30 17:39:00,
2013-10-30 13:44:00,51.5,42.0,30.22,WSW,242,2.3,2.3,70,0.00,CLR,,0.05,WeatherDisplay:10.37,2013-10-30 17:44:00,
2013-10-30 13:49:00,51.3,42.2,30.22,WSW,249,2.3,2.3,71,0.00,CLR,,0.05,WeatherDisplay:10.37,2013-10-30 17:49:00,
2013-10-30 13:54:00,51.7,43.0,30.23,SE,145,0.0,0.0,72,0.00,CLR,,0.05,WeatherDisplay:10.37,2013-10-30 17:54:00,
2013-10-30 13:59:00,52.0,42.5,30.22,ENE,61,2.3,2.3,70,0.00,CLR,,0.05,WeatherDisplay:10.37,2013-10-30 17:59:00,
2013-10-30 14:04:00,52.1,42.2,30.22,South,177,2.3,2.3,69,0.00,CLR,,0.05,WeatherDisplay:10.37,2013-10-30 18:04:00,
2013-10-30 14:09:00,52.1,41.9,30.22,NW,321,2.0,2.0,68,0.00,CLR,,0.05,WeatherDisplay:10.37,2013-10-30 18:09:00,
2013-10-30 14:14:00,52.0,41.8,30.22,SSW,203,2.3,2.3,68,0.00,CLR,,0.05,WeatherDisplay:10.37,2013-10-30 18:14:00,
2013-10-30 14:19:00,52.2,42.0,30.21,ESE,114,1.1,1.1,68,0.00,CLR,,0.05,WeatherDisplay:10.37,2013-10-30 18:19:00,
2013-10-30 14:24:00,52.5,41.9,30.21,ESE,103,2.3,2.3,67,0.00,CLR,,0.05,WeatherDisplay:10.37,2013-10-30 18:24:00,
2013-10-30 14:29:00,52.6,41.9,30.21,SW,221,2.3,2.3,67,0.00,CLR,,0.05,WeatherDisplay:10.37,2013-10-30 18:29:00,
2013-10-30 14:34:00,52.8,42.1,30.21,ENE,62,1.1,1.1,67,0.00,CLR,,0.05,WeatherDisplay:10.37,2013-10-30 18:34:00,
2013-10-30 14:39:00,53.0,42.3,30.20,SW,229,1.1,0.0,67,0.00,CLR,,0.05,WeatherDisplay:10.37,2013-10-30 18:39:00,
2013-10-30 14:44:00,53.3,42.6,30.20,East,89,0.0,0.0,67,0.00,CLR,,0.05,WeatherDisplay:10.37,2013-10-30 18:44:00,
2013-10-30 14:50:00,53.5,42.4,30.20,SE,136,1.1,1.1,66,0.00,CLR,,0.05,WeatherDisplay:10.37,2013-10-30 18:50:00,
2013-10-30 14:55:00,53.4,41.9,30.20,West,266,2.0,2.0,65,0.00,CLR,,0.05,WeatherDisplay:10.37,2013-10-30 18:55:00,
2013-10-30 15:00:00,53.1,42.0,30.20,NW,304,2.3,0.0,66,0.00,CLR,,0.05,WeatherDisplay:10.37,2013-10-30 19:00:00,
2013-10-30 15:05:00,53.2,42.1,30.20,East,91,1.1,0.0,66,0.00,CLR,,0.05,WeatherDisplay:10.37,2013-10-30 19:05:00,
2013-10-30 15:10:00,53.4,41.9,30.20,SW,214,0.0,0.0,65,0.00,CLR,,0.05,WeatherDisplay:10.37,2013-10-30 19:10:00,
2013-10-30 15:15:00,53.6,42.1,30.20,North,8,1.1,1.1,65,0.00,CLR,,0.05,WeatherDisplay:10.37,2013-10-30 19:15:00,
2013-10-30 15:20:00,53.6,41.3,30.20,West,266,0.0,0.1,63,0.00,CLR,,0.05,WeatherDisplay:10.37,2013-10-30 19:20:00,
2013-10-30 15:25:00,53.6,41.3,30.20,NE,44,1.1,0.0,63,0.00,CLR,,0.05,WeatherDisplay:10.37,2013-10-30 19:25:00,
2013-10-30 15:30:00,53.7,41.8,30.20,NW,305,1.1,1.1,64,0.00,CLR,,0.05,WeatherDisplay:10.37,2013-10-30 19:30:00,
2013-10-30 15:35:00,53.6,41.7,30.20,West,270,1.1,1.1,64,0.00,CLR,,0.05,WeatherDisplay:10.37,2013-10-30 19:35:00,
2013-10-30 15:40:00,53.6,42.5,30.19,ESE,114,0.0,0.0,66,0.00,CLR,,0.05,WeatherDisplay:10.37,2013-10-30 19:40:00,
2013-10-30 15:45:00,53.5,41.2,30.19,SE,136,0.0,0.2,63,0.00,CLR,,0.05,WeatherDisplay:10.37,2013-10-30 19:45:00,
2013-10-30 15:50:00,53.5,41.6,30.19,SW,236,1.1,1.1,64,0.00,CLR,,0.05,WeatherDisplay:10.37,2013-10-30 19:50:00,
2013-10-30 15:55:00,53.4,41.1,30.18,WSW,240,0.0,0.0,63,0.00,CLR,,0.05,WeatherDisplay:10.37,2013-10-30 19:55:00,
2013-10-30 16:00:00,53.4,41.1,30.18,West,280,1.1,0.0,63,0.00,CLR,,0.05,WeatherDisplay:10.37,2013-10-30 20:00:00,
2013-10-30 16:05:00,53.3,41.4,30.18,NNW,345,0.0,0.0,64,0.00,CLR,,0.05,WeatherDisplay:10.37,2013-10-30 20:05:00,
2013-10-30 16:10:00,53.4,41.9,30.18,WNW,295,2.3,2.3,65,0.00,CLR,,0.05,WeatherDisplay:10.37,2013-10-30 20:10:00,
2013-10-30 16:15:00,53.5,41.6,30.18,ESE,122,1.1,1.1,64,0.00,CLR,,0.05,WeatherDisplay:10.37,2013-10-30 20:15:00,
2013-10-30 16:20:00,53.4,41.5,30.18,SE,127,0.0,0.0,64,0.00,CLR,,0.05,WeatherDisplay:10.37,2013-10-30 20:20:00,
2013-10-30 16:25:00,53.4,41.9,30.18,ESE,105,1.1,1.1,65,0.00,CLR,,0.05,WeatherDisplay:10.37,2013-10-30 20:25:00,
2013-10-30 16:30:00,53.4,41.5,30.18,ENE,65,0.0,0.0,64,0.00,CLR,,0.05,WeatherDisplay:10.37,2013-10-30 20:30:00,
2013-10-30 16:35:00,53.1,41.6,30.18,NW,316,1.1,1.1,65,0.00,CLR,,0.05,WeatherDisplay:10.37,2013-10-30 20:35:00,
2013-10-30 16:40:00,53.1,42.4,30.18,NW,316,0.0,0.0,67,0.00,CLR,,0.05,WeatherDisplay:10.37,2013-10-30 20:40:00,
2013-10-30 16:45:00,53.0,41.9,30.19,ESE,107,0.0,0.0,66,0.00,CLR,,0.05,WeatherDisplay:10.37,2013-10-30 20:45:00,
2013-10-30 16:50:00,52.8,42.5,30.18,ESE,108,0.0,0.0,68,0.00,CLR,,0.05,WeatherDisplay:10.37,2013-10-30 20:50:00,
2013-10-30 16:55:00,52.6,41.6,30.18,ESE,108,0.0,0.0,66,0.00,CLR,,0.05,WeatherDisplay:10.37,2013-10-30 20:55:00,
2013-10-30 17:01:00,52.5,41.9,30.18,ESE,122,0.0,0.0,67,0.00,CLR,,0.05,WeatherDisplay:10.37,2013-10-30 21:01:00,
2013-10-30 17:06:00,52.3,42.0,30.17,SE,135,0.0,0.0,68,0.00,CLR,,0.05,WeatherDisplay:10.37,2013-10-30 21:06:00,
2013-10-30 17:11:00,52.0,42.1,30.17,ESE,122,0.0,0.0,69,0.00,CLR,,0.05,WeatherDisplay:10.37,2013-10-30 21:11:00,
2013-10-30 17:16:00,51.9,41.7,30.17,SE,124,0.0,0.0,68,0.00,CLR,,0.05,WeatherDisplay:10.37,2013-10-30 21:16:00,
2013-10-30 17:21:00,51.9,41.7,30.17,ESE,109,0.0,0.0,68,0.00,CLR,,0.05,WeatherDisplay:10.37,2013-10-30 21:21:00,
2013-10-30 17:26:00,51.7,41.9,30.17,ESE,117,0.0,0.0,69,0.00,CLR,,0.05,WeatherDisplay:10.37,2013-10-30 21:26:00,
2013-10-30 17:31:00,51.3,41.8,30.18,ESE,117,0.0,0.0,70,0.00,CLR,,0.05,WeatherDisplay:10.37,2013-10-30 21:31:00,
2013-10-30 17:36:00,51.2,41.4,30.18,ESE,111,0.0,0.0,69,0.00,CLR,,0.05,WeatherDisplay:10.37,2013-10-30 21:36:00,
2013-10-30 17:41:00,51.0,41.6,30.19,ESE,111,0.0,0.0,70,0.00,CLR,,0.05,WeatherDisplay:10.37,2013-10-30 21:41:00,
2013-10-30 17:46:00,50.7,41.3,30.19,ESE,112,1.1,0.0,70,0.00,CLR,,0.05,WeatherDisplay:10.37,2013-10-30 21:46:00,
2013-10-30 17:51:00,50.5,41.1,30.19,ESE,112,0.0,0.0,70,0.00,CLR,,0.05,WeatherDisplay:10.37,2013-10-30 21:51:00,
2013-10-30 17:56:00,50.0,41.3,30.19,ESE,112,0.0,0.0,72,0.00,CLR,,0.05,WeatherDisplay:10.37,2013-10-30 21:56:00,
2013-10-30 18:01:00,49.6,41.7,30.19,ESE,111,0.0,0.0,74,0.00,CLR,,0.05,WeatherDisplay:10.37,2013-10-30 22:01:00,
2013-10-30 18:06:00,49.2,41.6,30.19,South,174,0.0,0.0,75,0.00,CLR,,0.05,WeatherDisplay:10.37,2013-10-30 22:06:00,
2013-10-30 18:11:00,49.0,42.1,30.19,SSW,208,0.0,0.0,77,0.00,CLR,,0.05,WeatherDisplay:10.37,2013-10-30 22:11:00,
2013-10-30 18:16:00,48.7,42.1,30.19,SSW,208,0.0,0.0,78,0.00,CLR,,0.05,WeatherDisplay:10.37,2013-10-30 22:16:00,
2013-10-30 18:21:00,48.5,42.3,30.19,NNW,336,0.0,0.0,79,0.00,CLR,,0.05,WeatherDisplay:10.37,2013-10-30 22:21:00,
2013-10-30 18:26:00,48.4,42.5,30.19,NNE,27,0.0,0.0,80,0.00,CLR,,0.05,WeatherDisplay:10.37,2013-10-30 22:26:00,
2013-10-30 18:31:00,48.2,42.6,30.19,NW,316,0.0,0.0,81,0.00,CLR,,0.05,WeatherDisplay:10.37,2013-10-30 22:31:00,
2013-10-30 18:36:00,47.9,42.3,30.19,NW,316,0.0,0.0,81,0.00,,,0.05,WeatherDisplay:10.37,2013-10-30 22:36:00,
2013-10-30 18:41:00,47.6,42.4,30.19,WNW,293,0.0,0.0,82,0.00,,,0.05,WeatherDisplay:10.37,2013-10-30 22:41:00,
2013-10-30 18:46:00,47.5,42.6,30.19,WNW,293,0.0,0.0,83,0.00,,,0.05,WeatherDisplay:10.37,2013-10-30 22:46:00,
2013-10-30 18:51:00,47.2,42.3,30.20,WNW,294,0.0,0.0,83,0.00,,,0.05,WeatherDisplay:10.37,2013-10-30 22:51:00,
2013-10-30 18:56:00,47.2,42.6,30.20,NNE,15,0.0,0.0,84,0.00,,,0.05,WeatherDisplay:10.37,2013-10-30 22:56:00,
2013-10-30 19:01:00,47.2,42.6,30.20,WNW,289,1.1,0.0,84,0.00,,,0.05,WeatherDisplay:10.37,2013-10-30 23:01:00,
2013-10-30 19:06:00,47.1,42.5,30.19,WNW,285,1.1,0.0,84,0.00,,,0.05,WeatherDisplay:10.37,2013-10-30 23:06:00,
2013-10-30 19:12:00,47.0,42.4,30.19,NNE,32,0.0,0.0,84,0.00,,,0.05,WeatherDisplay:10.37,2013-10-30 23:12:00,
2013-10-30 19:17:00,46.8,42.2,30.19,NNE,32,0.0,0.0,84,0.00,,,0.05,WeatherDisplay:10.37,2013-10-30 23:17:00,
2013-10-30 19:22:00,46.6,42.0,30.20,NNW,334,0.0,0.0,84,0.00,,,0.05,WeatherDisplay:10.37,2013-10-30 23:22:00,
2013-10-30 19:27:00,46.4,42.1,30.20,NNW,335,0.0,0.0,85,0.00,,,0.05,WeatherDisplay:10.37,2013-10-30 23:27:00,
2013-10-30 19:32:00,46.0,41.7,30.20,NNW,335,1.1,1.1,85,0.00,,,0.05,WeatherDisplay:10.37,2013-10-30 23:32:00,
2013-10-30 19:37:00,45.6,41.4,30.19,NNW,334,0.0,0.0,85,0.00,,,0.05,WeatherDisplay:10.37,2013-10-30 23:37:00,
2013-10-30 19:42:00,45.1,41.2,30.19,NNW,335,0.0,0.0,86,0.00,,,0.05,WeatherDisplay:10.37,2013-10-30 23:42:00,
2013-10-30 19:47:00,44.8,41.2,30.20,NNW,335,0.0,0.0,87,0.00,,,0.05,WeatherDisplay:10.37,2013-10-30 23:47:00,
2013-10-30 19:52:00,44.8,41.2,30.19,NNW,334,0.0,0.0,87,0.00,,,0.05,WeatherDisplay:10.37,2013-10-30 23:52:00,
2013-10-30 19:57:00,44.7,41.1,30.19,NE,44,0.0,0.0,87,0.00,,,0.05,WeatherDisplay:10.37,2013-10-30 23:57:00,
2013-10-30 20:02:00,44.7,41.4,30.19,NNE,33,0.0,0.0,88,0.00,,,0.05,WeatherDisplay:10.37,2013-10-31 00:02:00,
2013-10-30 20:07:00,44.4,40.8,30.19,NNE,33,0.0,0.0,87,0.00,,,0.05,WeatherDisplay:10.37,2013-10-31 00:07:00,
2013-10-30 20:12:00,44.2,40.9,30.19,NNE,33,0.0,0.0,88,0.00,,,0.05,WeatherDisplay:10.37,2013-10-31 00:12:00,
2013-10-30 20:17:00,44.1,40.8,30.18,NNE,33,0.0,0.0,88,0.00,,,0.05,WeatherDisplay:10.37,2013-10-31 00:17:00,
2013-10-30 20:22:00,44.2,40.9,30.18,NNE,33,0.0,0.0,88,0.00,,,0.05,WeatherDisplay:10.37,2013-10-31 00:22:00,
2013-10-30 20:27:00,44.3,41.0,30.19,NNE,17,0.0,0.0,88,0.00,,,0.05,WeatherDisplay:10.37,2013-10-31 00:27:00,
2013-10-30 20:32:00,44.5,41.2,30.19,NNE,17,0.0,0.0,88,0.00,,,0.05,WeatherDisplay:10.37,2013-10-31 00:32:00,
2013-10-30 20:37:00,44.6,41.3,30.18,NNE,17,0.0,0.0,88,0.00,,,0.05,WeatherDisplay:10.37,2013-10-31 00:37:00,
2013-10-30 20:42:00,44.5,40.9,30.18,NNE,18,1.0,0.0,87,0.00,,,0.05,WeatherDisplay:10.37,2013-10-31 00:42:00,
2013-10-30 20:48:00,44.4,40.8,30.18,NNE,18,0.0,0.0,87,0.00,,,0.05,WeatherDisplay:10.37,2013-10-31 00:48:00,
2013-10-30 20:53:00,44.1,40.5,30.19,NNE,18,0.0,0.0,87,0.00,,,0.05,WeatherDisplay:10.37,2013-10-31 00:53:00,
2013-10-30 20:58:00,43.9,40.3,30.18,NNE,17,0.0,0.0,87,0.00,,,0.05,WeatherDisplay:10.37,2013-10-31 00:58:00,
2013-10-30 21:03:00,43.5,40.2,30.18,NNE,18,0.0,0.0,88,0.00,,,0.05,WeatherDisplay:10.37,2013-10-31 01:03:00,
2013-10-30 21:08:00,43.2,39.9,30.18,NNE,18,0.0,0.0,88,0.00,,,0.05,WeatherDisplay:10.37,2013-10-31 01:08:00,
2013-10-30 21:13:00,42.9,39.9,30.18,NNE,18,0.0,0.0,89,0.00,,,0.05,WeatherDisplay:10.37,2013-10-31 01:13:00,
2013-10-30 21:18:00,42.7,39.7,30.18,NNE,17,0.0,0.0,89,0.00,,,0.05,WeatherDisplay:10.37,2013-10-31 01:18:00,
2013-10-30 21:23:00,42.4,39.4,30.18,NNE,17,0.0,0.0,89,0.00,,,0.05,WeatherDisplay:10.37,2013-10-31 01:23:00,
2013-10-30 21:28:00,42.2,39.2,30.18,NNE,17,0.0,0.0,89,0.00,,,0.05,WeatherDisplay:10.37,2013-10-31 01:28:00,
2013-10-30 21:34:00,41.7,38.7,30.18,NNE,18,0.0,0.0,89,0.00,,,0.05,WeatherDisplay:10.37,2013-10-31 01:34:00,
2013-10-30 21:39:00,41.5,38.8,30.18,NNE,18,0.0,0.0,90,0.00,,,0.05,WeatherDisplay:10.37,2013-10-31 01:39:00,
2013-10-30 21:44:00,41.4,38.7,30.18,NNE,17,0.0,0.0,90,0.00,,,0.05,WeatherDisplay:10.37,2013-10-31 01:44:00,
2013-10-30 21:49:00,41.2,38.5,30.18,NNE,18,0.0,0.0,90,0.00,,,0.05,WeatherDisplay:10.37,2013-10-31 01:49:00,
2013-10-30 21:54:00,41.1,38.4,30.18,NNE,17,0.0,0.0,90,0.00,,,0.05,WeatherDisplay:10.37,2013-10-31 01:54:00,
2013-10-30 21:59:00,40.8,38.1,30.18,NNE,17,0.0,0.0,90,0.00,,,0.05,WeatherDisplay:10.37,2013-10-31 01:59:00,
2013-10-30 22:04:00,40.5,37.8,30.18,NNE,17,0.0,0.0,90,0.00,,,0.05,WeatherDisplay:10.37,2013-10-31 02:04:00,
2013-10-30 22:09:00,40.6,38.2,30.18,NNE,18,0.0,0.0,91,0.00,,,0.05,WeatherDisplay:10.37,2013-10-31 02:09:00,
2013-10-30 22:14:00,40.5,38.1,30.17,NNE,17,0.0,0.0,91,0.00,,,0.05,WeatherDisplay:10.37,2013-10-31 02:14:00,
2013-10-30 22:19:00,40.2,37.5,30.17,NNE,18,0.0,0.0,90,0.00,,,0.05,WeatherDisplay:10.37,2013-10-31 02:19:00,
2013-10-30 22:24:00,39.8,37.1,30.17,NNE,18,0.0,0.0,90,0.00,,,0.05,WeatherDisplay:10.37,2013-10-31 02:24:00,
2013-10-30 22:29:00,39.9,37.5,30.17,NNE,18,0.0,0.0,91,0.00,,,0.05,WeatherDisplay:10.37,2013-10-31 02:29:00,
2013-10-30 22:34:00,40.2,37.8,30.17,NNE,18,0.0,0.0,91,0.00,,,0.05,WeatherDisplay:10.37,2013-10-31 02:34:00,
2013-10-30 22:39:00,40.1,37.7,30.18,NNE,17,0.0,0.0,91,0.00,,,0.05,WeatherDisplay:10.37,2013-10-31 02:39:00,
2013-10-30 22:44:00,39.9,37.5,30.18,NNE,18,0.0,0.0,91,0.00,,,0.05,WeatherDisplay:10.37,2013-10-31 02:44:00,
2013-10-30 22:49:00,40.0,37.6,30.18,NNE,18,0.0,0.0,91,0.00,,,0.05,WeatherDisplay:10.37,2013-10-31 02:49:00,
2013-10-30 22:54:00,40.1,37.7,30.18,NNE,18,0.0,0.0,91,0.00,,,0.05,WeatherDisplay:10.37,2013-10-31 02:54:00,
2013-10-30 22:59:00,40.1,37.7,30.18,NNE,18,0.0,0.0,91,0.00,,,0.05,WeatherDisplay:10.37,2013-10-31 02:59:00,
2013-10-30 23:00:00,40.1,37.7,30.18,NNE,17,0.0,0.0,91,0.00,,,0.05,WeatherDisplay:10.37,2013-10-31 03:00:00,
2013-10-30 23:05:00,40.0,37.6,30.17,NNE,17,0.0,0.0,91,0.00,,,0.05,WeatherDisplay:10.37,2013-10-31 03:05:00,
2013-10-30 23:10:00,39.8,37.4,30.17,NNE,17,0.0,0.0,91,0.00,,,0.05,WeatherDisplay:10.37,2013-10-31 03:10:00,
2013-10-30 23:15:00,39.8,37.4,30.16,NNE,18,0.0,0.0,91,0.00,,,0.05,WeatherDisplay:10.37,2013-10-31 03:15:00,
2013-10-30 23:20:00,39.7,37.3,30.16,NNE,17,0.0,0.0,91,0.00,,,0.05,WeatherDisplay:10.37,2013-10-31 03:20:00,
2013-10-30 23:25:00,39.7,37.3,30.16,NNE,17,0.0,0.0,91,0.00,,,0.05,WeatherDisplay:10.37,2013-10-31 03:25:00,
2013-10-30 23:30:00,39.9,37.5,30.15,NNE,18,0.0,0.0,91,0.00,,,0.05,WeatherDisplay:10.37,2013-10-31 03:30:00,
2013-10-30 23:35:00,39.8,37.4,30.15,NNE,18,0.0,0.0,91,0.00,,,0.05,WeatherDisplay:10.37,2013-10-31 03:35:00,
2013-10-30 23:40:00,39.9,37.5,30.15,NNE,17,0.0,0.0,91,0.00,,,0.05,WeatherDisplay:10.37,2013-10-31 03:40:00,
2013-10-30 23:45:00,39.9,37.5,30.14,NNE,17,0.0,0.0,91,0.00,,,0.05,WeatherDisplay:10.37,2013-10-31 03:45:00,
2013-10-30 23:50:00,40.1,37.4,30.14,NNE,18,0.0,0.0,90,0.00,,,0.05,WeatherDisplay:10.37,2013-10-31 03:50:00,
2013-10-30 23:55:00,40.5,38.1,30.13,WSW,248,0.0,0.0,91,0.00,,,0.05,WeatherDisplay:10.37,2013-10-31 03:55:00,